Miscellaneous Local Product
Issued by NWS North Platte, NE

Home | Current Version | Previous Version | Graphics & Text | Print | Product List | Glossary On
Versions: 1 2 3 4 5 6 7 8 9 10 11 12 13 14 15 16 17 18 19 20 21 22 23 24 25 26 27 28 29 30 31 32 33 34 35 36 37 38 39 40 41 42 43 44 45 46 47 48 49 50
000
AXUS43 KLBF 200810
MISLBF


WESTERN AND NORTH CENTRAL NEBRASKA HOURLY WEATHER ROUNDUP
NATIONAL WEATHER SERVICE NORTH PLATTE NE
200 AM CST SAT DEC 20 2014

***STATIONS NOT REPORTING VARIABLES SUCH AS SKY/WEATHER OR
PRESSURE ARE PROVIDED BY THE NEBRASKA DEPARTMENT OF
ROADS...RAWS...AND APRS NETWORKS...AND ARE NOT UNDER
NATIONAL WEATHER SERVICE QUALITY CONTROL***

...OBSERVATIONS IN AND NEAR THE EASTERN PANHANDLE OF NEBRASKA...

CITY           SKY/WX    TMP DP  RH WIND       PRES   REMARKS
PINE RIDGE     CLEAR     18  13  80 W3        29.94F
CHADRON        CLEAR     14  10  84 SW6       29.96S WCI   5
ALLIANCE       PTCLDY    13  11  92 CALM      29.96F
SIDNEY         PTCLDY    18  13  80 W7        29.99F WCI   9
WHITECLAY        N/A     18  13  79 S3          N/A
CRESCENT LAKE    N/A     23  20  89 CALM        N/A
LISCO            N/A     16  11  82 CALM        N/A
BIG SPRINGS      N/A     20  18  90 CALM        N/A
$$

...OBSERVATIONS IN NORTH CENTRAL NEBRASKA...

CITY           SKY/WX    TMP DP  RH WIND       PRES   REMARKS
VALENTINE      CLEAR     14  12  92 SW7       29.98S WCI   4
THEDFORD       CLEAR     22  19  89 W3        30.00S
AINSWORTH      CLEAR     20  17  88 W8        29.97S WCI  10
O`NEILL        FOG       25  25  99 S3        30.01S VSB 1/4
BROKEN BOW     CLEAR     24  20  84 SW5       30.00S WCI  18
BROWNLEE         N/A     22  17  81 S5          N/A  WCI  15
SPRINGVIEW       N/A     12  10  90 CALM        N/A
BREWSTER         N/A     20  19  96 W3          N/A
ROSE             N/A     20  21 100 MISG        N/A
SARGENT          N/A     14  12  93 CALM        N/A
COMSTOCK         N/A     21  19  91 CALM        N/A
CHAMBERS         N/A     23  23  99 CALM        N/A
EWING            N/A     28  27  97 CALM        N/A
$$

...OBSERVATIONS IN SOUTHWEST NEBRASKA AND FAR NORTHEAST COLORADO...

CITY           SKY/WX    TMP DP  RH WIND       PRES   REMARKS
HOLYOKE        FAIR      19  16  86 W6        30.01S WCI  11
IMPERIAL       PTCLDY    27  19  72 W7        30.02S WCI  19
OGALLALA       PTCLDY    16  15  95 W8        30.02S FOG     WCI   5
NORTH PLATTE   CLEAR     19  17  92 NW5       30.02S FOG     WCI  12
MCCOOK         CLEAR     25  22  88 W7        30.03F WCI  17
LEXINGTON      CLEAR     22  20  94 NW7       30.02F FOG     WCI  13
PAXTON           N/A     23  20  89 W5          N/A  WCI  17
BRADY            N/A     24  21  88 CALM        N/A
GOTHENBURG       N/A     26  22  86 W7          N/A  WCI  18
CALLAWAY         N/A     25  22  89 NW3         N/A
$$

...NORTH PLATTE AREA...

CITY           SKY/WX    TMP DP  RH WIND       PRES   REMARKS
AIRPORT        CLEAR     19  17  92 NW5       30.02S FOG     WCI  12
DOWNTOWN         N/A     22  20  92 CALM        N/A
$$

...SOME WEATHER OBSERVATIONS FROM AROUND THE REGION...

CITY           SKY/WX    TMP DP  RH WIND       PRES   REMARKS
DENVER         CLEAR     28  16  60 SW9       29.99F WCI  19
LARAMIE        PTCLDY    28  16  60 SW9       30.02F WCI  19
CHEYENNE       PTCLDY    29  15  56 MISG      29.97F
SCOTTSBLUFF    PTCLDY    13  10  88 NE6       29.97F WCI   4
RAPID CITY     CLEAR     24  17  74 W3        29.90S
PIERRE         FOG       14  11  87 CALM      29.95F VSB 3/4
WINNER         FAIR      22  16  78 S3        29.97S
SIOUX FALLS    CLOUDY    31  28  89 S8        30.06R WCI  23
OMAHA          FRZ DRZL  31  30  96 S13       30.14S FOG     WCI  21
GRAND ISLAND   CLOUDY    32  31  96 SW3       30.05R FOG
KANSAS CITY    CLOUDY    32  31  96 S7        30.18S FOG     WCI  26
WICHITA        MOCLDY    36  33  89 S8        30.16F WCI  30
HAYS           PTCLDY    30  21  69 CALM      30.07S
LIBERAL        CLEAR     28  25  86 SW6       30.11F WCI  22
GOODLAND       PTCLDY    31  28  89 W10       30.02F WCI  22
$$



USA.gov is the U.S. government's official web portal to all federal, state and local government web resources and services.